Location: Newark
(22.3060°N, 114.2134°E)
Time: 06:33:13
(UTC+00:00)

Courier 1B - Visible Passes

Search period start: 31 July 2021 00:00
Search period end: 10 August 2021 00:00
Orbit: 962 x 1209 km, 28.3° (Epoch: 30 July)

Date Brightness Start Highest point End Pass type
(mag) Time Alt. Az. Time Alt. Az. Time Alt. Az.
31 Jul 8.3 12:27:04 10° W 12:34:49 60° N 12:41:07 15° ENE visible
31 Jul 8.6 14:22:18 10° WNW 14:28:00 46° NW 14:28:00 46° NW visible
01 Aug 8.3 11:32:51 10° W 11:40:41 67° NNW 11:48:20 10° ENE visible
01 Aug 8.3 13:28:05 10° WNW 13:35:41 55° N 13:37:26 46° NE visible
01 Aug 10.0 15:22:56 10° WNW 15:24:18 16° WNW 15:24:18 16° WNW visible
02 Aug 8.4 12:33:51 10° W 12:41:32 55° N 12:46:49 20° ENE visible
02 Aug 8.8 14:28:49 10° WNW 14:33:41 41° NW 14:33:41 41° NW visible
03 Aug 8.5 11:39:36 10° W 11:47:21 57° N 11:54:55 10° ENE visible
03 Aug 8.1 13:34:41 10° WNW 13:42:24 61° N 13:43:02 59° NNE visible
03 Aug 10.2 15:29:23 10° WNW 15:29:55 12° WNW 15:29:55 12° WNW visible
04 Aug 8.3 12:40:32 10° WNW 12:48:15 57° N 12:52:22 28° ENE visible
04 Aug 9.1 14:35:16 10° WNW 14:39:14 33° WNW 14:39:14 33° WNW visible
05 Aug 8.5 11:46:22 10° WNW 11:54:04 55° N 12:01:38 10° ENE visible
05 Aug 7.9 13:41:10 10° WNW 13:48:34 73° NNW 13:48:34 73° NNW visible
06 Aug 8.1 12:47:05 10° WNW 12:54:55 67° NNE 12:57:54 40° E visible
06 Aug 9.5 14:41:47 10° WNW 14:44:46 25° W 14:44:46 25° W visible
07 Aug 8.3 11:53:00 10° WNW 12:00:46 60° N 12:07:14 15° E visible
07 Aug 8.1 13:47:38 10° WNW 13:54:06 63° W 13:54:06 63° W visible
08 Aug 7.8 12:53:33 10° WNW 13:01:28 85° NNE 13:03:28 55° ESE visible
08 Aug 9.9 14:48:32 10° W 14:50:20 17° W 14:50:20 17° W visible
09 Aug 8.0 11:59:31 10° WNW 12:07:23 74° NNE 12:12:50 22° E visible
09 Aug 8.7 13:54:13 10° W 13:59:42 43° WSW 13:59:42 43° WSW visible
